Location: *
(47.7167°N, 1.7333°W)
Time: 02:44:08
(UTC+00:00)

ATLAS CENTAUR R/B - Pass Details

Date: 09 April 2020
Orbit: 471 x 675 km, 64.7° (Epoch: 01 June)

Event Time Altitude Azimuth Distance (km) Brightness Sun altitude
Rises 21:54:01 0° 321° (NW) 2,665 6.1 -26.9°
Reaches altitude 10° 21:56:16 10° 321° (NW) 1,741 4.9 -27.1°
Enters shadow 21:58:37 35° 320° (NW) 825 2.7 -27.3°
